DW4393 Weather Reports


time (UTC)temp
C
wind
direction
speed
KPH
gust
KPH
rain 1hr
cm
rain 24hr
cm
rain mn
cm
humidity
%
barometer
mb
20260831021803 23 252 0.0 0.0 0.00 0.00 0.00 90 1019.3
20260831021302 23 252 0.0 0.0 0.00 0.00 0.00 90 1019.3
20260831020802 23 252 0.0 0.0 0.00 0.00 0.00 90 1019.2
20260831020303 24 252 0.0 0.0 0.00 0.00 0.00 90 1019.2
20260831014803 24 252 0.0 0.0 0.00 0.00 0.00 89 1019.0
20260831014303 24 252 0.0 0.0 0.00 0.00 0.00 89 1019.0
20260831013803 24 252 0.0 0.0 0.00 0.00 0.00 89 1019.0
20260831011803 25 252 0.0 0.0 0.00 0.00 0.00 88 1018.7
20260831011303 25 252 0.0 0.0 0.00 0.00 0.00 88 1018.7
20260831010802 25 252 0.0 0.0 0.00 0.00 0.00 87 1018.7
20260831010303 25 252 0.0 0.0 0.00 0.00 0.00 87 1018.6
20260831004802 25 252 0.0 0.0 0.00 0.00 0.00 86 1018.5
20260831004303 25 252 0.0 0.0 0.00 0.00 0.00 85 1018.4
20260831003802 25 252 0.0 0.0 0.00 0.00 0.00 84 1018.4
20260831003303 25 252 0.0 0.0 0.00 0.00 0.00 84 1018.4
20260831001803 26 252 0.0 0.0 0.00 0.00 0.00 83 1018.3
20260831000803 26 252 0.0 0.0 0.00 0.00 0.00 80 1018.2
20260831000303 26 252 0.0 0.0 0.00 0.00 0.00 79 1018.3
20260830234802 27 252 0.0 0.0 0.00 0.00 0.00 76 1018.1
20260830233802 27 252 0.0 0.0 0.00 0.00 0.00 76 1018.1
20260830233303 27 252 0.0 0.0 0.00 0.00 0.00 75 1018.0
20260830231803 28 252 0.0 0.0 0.00 0.00 0.00 74 1018.1
20260830231303 28 252 0.0 0.0 0.00 0.00 0.00 70 1018.0
20260830230803 28 252 0.0 0.0 0.00 0.00 0.00 68 1018.0
20260830230302 28 252 0.0 0.0 0.00 0.00 0.00 68 1017.9
20260830224803 29 252 0.0 0.0 0.00 0.00 0.00 66 1017.7
20260830224303 29 252 0.0 0.0 0.00 0.00 0.00 66 1017.7
20260830223802 29 252 0.0 0.0 0.00 0.00 0.00 65 1017.8
20260830223303 29 252 0.0 0.0 0.00 0.00 0.00 66 1017.8
20260830221802 29 252 0.0 0.0 0.00 0.00 0.00 67 1017.9
20260830221303 30 252 0.0 0.0 0.00 0.00 0.00 67 1017.8
20260830220803 30 260 0.0 0.0 0.00 0.00 0.00 66 1017.9
20260830220302 30 260 0.0 0.0 0.00 0.00 0.00 64 1017.8
20260830213803 30 200 0.0 0.0 0.00 0.00 0.00 64 1017.8
20260830213302 30 200 0.0 0.0 0.00 0.00 0.00 64 1017.9
20260830211802 30 159 0.0 0.0 0.00 0.00 0.00 60 1018.1
20260830211303 30 159 0.0 0.0 0.00 0.00 0.00 60 1018.1
20260830210802 30 211 0.0 0.0 0.00 0.00 0.00 62 1018.0
20260830210303 30 250 0.0 0.0 0.00 0.00 0.00 66 1018.1
20260830204803 30 134 0.0 0.0 0.00 0.00 0.00 64 1018.2
20260830204303 31 134 0.0 0.0 0.00 0.00 0.00 63 1018.3
20260830203803 31 131 0.0 0.0 0.00 0.00 0.00 64 1018.4
20260830203303 30 133 0.0 0.0 0.00 0.00 0.00 65 1018.2
20260830201803 31 69 0.0 0.0 0.00 0.00 0.00 66 1018.4
20260830201303 31 69 0.0 0.0 0.00 0.00 0.00 63 1018.5
20260830200803 30 69 0.0 0.0 0.00 0.00 0.00 67 1018.5
20260830194803 31 113 0.0 0.0 0.00 0.00 0.00 62 1018.8
20260830194303 31 114 0.0 0.0 0.00 0.00 0.00 64 1018.8
20260830193803 31 155 0.0 0.0 0.00 0.00 0.00 63 1018.8
20260830193303 30 178 0.0 0.0 0.00 0.00 0.00 66 1019.0
20260830191803 28 244 0.0 0.0 0.00 0.00 0.00 72 1019.3
20260830190803 28 248 0.0 0.0 0.00 0.00 0.00 72 1019.4
20260830190303 28 154 0.0 0.0 0.00 0.00 0.00 75 1019.5
20260830184803 28 148 0.0 0.0 0.00 0.00 0.00 72 1019.6
20260830184303 28 148 0.0 0.0 0.00 0.00 0.00 70 1019.7
20260830181803 30 222 0.0 0.0 0.00 0.00 0.00 68 1019.9
20260830181303 29 205 0.0 0.0 0.00 0.00 0.00 69 1020.0
20260830180803 29 158 0.0 0.0 0.00 0.00 0.00 69 1020.0
20260830180303 28 204 0.0 0.0 0.00 0.00 0.00 75 1020.2
20260830174803 28 273 0.0 0.0 0.00 0.00 0.00 75 1020.3
20260830174303 28 273 0.0 0.0 0.00 0.00 0.00 74 1020.5
20260830173803 28 273 0.0 0.0 0.00 0.00 0.00 74 1020.6
20260830173303 28 273 0.0 0.0 0.00 0.00 0.00 74 1020.5
20260830171803 28 198 0.0 0.0 0.00 0.00 0.00 73 1020.9
20260830171303 28 188 0.0 0.0 0.00 0.00 0.00 78 1020.9
20260830170803 28 188 0.0 0.0 0.00 0.00 0.00 74 1021.0
20260830170304 28 188 0.0 0.0 0.00 0.00 0.00 76 1021.0
20260830164803 27 250 0.0 0.0 0.00 0.00 0.00 78 1021.1
20260830164303 27 250 0.0 0.0 0.00 0.00 0.00 77 1021.1
20260830163803 27 250 0.0 0.0 0.00 0.00 0.00 76 1021.1
20260830163303 27 250 0.0 0.0 0.00 0.00 0.00 77 1021.2
20260830161803 27 250 0.0 0.0 0.00 0.00 0.00 79 1021.5
20260830160803 27 250 0.0 0.0 0.00 0.00 0.00 77 1021.7
20260830154803 26 240 0.0 0.0 0.00 0.00 0.00 82 1021.8
20260830154303 26 240 0.0 0.0 0.00 0.00 0.00 81 1021.9
20260830153803 26 188 0.0 0.0 0.00 0.00 0.00 83 1021.9
20260830153304 26 152 0.0 0.0 0.00 0.00 0.00 85 1021.9
20260830151803 26 152 0.0 0.0 0.00 0.00 0.00 84 1022.0
20260830151303 26 152 0.0 0.0 0.00 0.00 0.00 84 1022.0
20260830150803 26 152 0.0 0.0 0.00 0.00 0.00 85 1022.0
20260830150303 26 138 0.0 0.0 0.00 0.00 0.00 86 1022.1
20260830144803 25 292 0.0 0.0 0.00 0.00 0.00 89 1022.0
20260830144303 25 292 0.0 0.0 0.00 0.00 0.00 89 1021.9
20260830143803 25 292 0.0 0.0 0.00 0.00 0.00 90 1021.9
20260830143304 24 292 0.0 0.0 0.00 0.00 0.00 91 1021.9
20260830141803 24 292 0.0 0.0 0.00 0.00 0.00 93 1021.9
20260830141303 23 292 0.0 0.0 0.00 0.00 0.00 93 1021.9
20260830140803 23 292 0.0 0.0 0.00 0.00 0.00 94 1021.9
20260830140303 23 292 0.0 0.0 0.00 0.00 0.00 95 1021.9
20260830134803 23 292 0.0 0.0 0.00 0.00 0.00 95 1021.8
20260830134304 23 292 0.0 0.0 0.00 0.00 0.00 96 1021.7
20260830133803 23 292 0.0 0.0 0.00 0.00 0.00 96 1021.8
20260830133303 23 292 0.0 0.0 0.00 0.00 0.00 96 1021.8
20260830131803 22 292 0.0 0.0 0.00 0.00 0.00 96 1021.7
20260830131304 22 292 0.0 0.0 0.00 0.00 0.00 96 1021.7
20260830130803 22 292 0.0 0.0 0.00 0.00 0.00 96 1021.8
20260830130303 22 292 0.0 0.0 0.00 0.00 0.00 96 1021.8
20260830124803 21 292 0.0 0.0 0.00 0.00 0.00 96 1021.8
20260830124303 21 292 0.0 0.0 0.00 0.00 0.00 96 1021.8
20260830123803 21 292 0.0 0.0 0.00 0.00 0.00 96 1021.7
20260830123307 21 292 0.0 0.0 0.00 0.00 0.00 96 1021.8
20260830121803 21 292 0.0 0.0 0.00 0.00 0.00 96 1021.6
20260830121304 21 292 0.0 0.0 0.00 0.00 0.00 96 1021.5
20260830120804 21 292 0.0 0.0 0.00 0.00 0.00 96 1021.5
20260830120303 21 292 0.0 0.0 0.00 0.00 0.00 96 1021.5
20260830114803 21 292 0.0 0.0 0.00 0.00 0.00 96 1021.2
20260830114304 20 292 0.0 0.0 0.00 0.00 0.00 96 1021.2
20260830113804 20 292 0.0 0.0 0.00 0.00 0.00 96 1021.1
20260830113304 20 292 0.0 0.0 0.00 0.00 0.00 96 1020.9
20260830111803 21 292 0.0 0.0 0.00 0.00 0.00 96 1020.6
20260830111303 20 292 0.0 0.0 0.00 0.00 0.00 96 1020.7
20260830110804 21 292 0.0 0.0 0.00 0.00 0.00 96 1020.5
20260830104803 20 292 0.0 0.0 0.00 0.00 0.00 96 1020.3
20260830103804 20 292 0.0 0.0 0.00 0.00 0.00 96 1020.1
20260830103303 21 292 0.0 0.0 0.00 0.00 0.00 96 1020.0
20260830101803 21 292 0.0 0.0 0.00 0.00 0.00 96 1019.9
20260830101304 21 292 0.0 0.0 0.00 0.00 0.00 96 1019.8
20260830100803 21 292 0.0 0.0 0.00 0.00 0.00 96 1019.8
20260830100304 21 292 0.0 0.0 0.00 0.00 0.00 96 1019.8
20260830094803 21 292 0.0 0.0 0.00 0.00 0.00 96 1019.8
20260830094304 21 292 0.0 0.0 0.00 0.00 0.00 96 1019.8
20260830091804 21 292 0.0 0.0 0.00 0.00 0.00 95 1019.7
20260830091303 21 292 0.0 0.0 0.00 0.00 0.00 96 1019.9
20260830090803 21 292 0.0 0.0 0.00 0.00 0.00 96 1019.8
20260830090303 21 292 0.0 0.0 0.00 0.00 0.00 96 1019.9
20260830084804 21 292 0.0 0.0 0.00 0.00 0.00 95 1020.1
20260830084303 21 292 0.0 0.0 0.00 0.00 0.00 95 1020.1
20260830083304 21 292 0.0 0.0 0.00 0.00 0.00 95 1019.9
20260830081804 21 292 0.0 0.0 0.00 0.00 0.00 95 1019.7
20260830080804 21 292 0.0 0.0 0.00 0.00 0.00 95 1019.7
20260830080304 21 292 0.0 0.0 0.00 0.00 0.00 95 1019.7
20260830074803 21 292 0.0 0.0 0.00 0.00 0.00 95 1019.6
20260830074304 21 292 0.0 0.0 0.00 0.00 0.00 95 1019.6
20260830073804 21 292 0.0 0.0 0.00 0.00 0.00 95 1019.8
20260830071803 21 292 0.0 0.0 0.00 0.00 0.00 95 1019.9
20260830071303 21 292 0.0 0.0 0.00 0.00 0.00 95 1019.9
20260830070804 21 292 0.0 0.0 0.00 0.00 0.00 95 1019.8
20260830070303 21 292 0.0 0.0 0.00 0.00 0.00 95 1019.8
20260830064803 21 292 0.0 0.0 0.00 0.00 0.00 95 1019.9
20260830063804 21 292 0.0 0.0 0.00 0.00 0.00 95 1020.0
20260830063303 21 292 0.0 0.0 0.00 0.00 0.00 95 1020.0
20260830061804 22 292 0.0 0.0 0.00 0.00 0.00 95 1019.8
20260830061303 22 292 0.0 0.0 0.00 0.00 0.00 95 1019.9
20260830060803 22 292 0.0 0.0 0.00 0.00 0.00 95 1020.1
20260830060304 22 292 0.0 0.0 0.00 0.00 0.00 95 1020.1
20260830054804 22 292 0.0 0.0 0.00 0.00 0.00 95 1020.3
20260830054304 22 292 0.0 0.0 0.00 0.00 0.00 94 1020.4
20260830053304 22 292 0.0 0.0 0.00 0.00 0.00 94 1020.4
20260830051804 22 292 0.0 0.0 0.00 0.00 0.00 94 1020.5
20260830051303 22 292 0.0 0.0 0.00 0.00 0.00 94 1020.4
20260830050804 22 292 0.0 0.0 0.00 0.00 0.00 94 1020.4
20260830050303 22 292 0.0 0.0 0.00 0.00 0.00 94 1020.5
20260830044303 22 292 0.0 0.0 0.00 0.00 0.00 94 1020.4
20260830043803 22 292 0.0 0.0 0.00 0.00 0.00 94 1020.5
20260830041804 23 292 0.0 0.0 0.00 0.00 0.00 93 1020.6
20260830041304 23 292 0.0 0.0 0.00 0.00 0.00 93 1020.5
20260830040823 23 292 0.0 0.0 0.00 0.00 0.00 93 1020.5
20260830040304 23 292 0.0 0.0 0.00 0.00 0.00 93 1020.5
20260830034304 23 292 0.0 0.0 0.00 0.00 0.00 91 1020.7
20260830033804 23 292 0.0 0.0 0.00 0.00 0.00 90 1020.7
20260830033304 23 292 0.0 0.0 0.00 0.00 0.00 91 1020.7
20260830031803 23 292 0.0 0.0 0.00 0.00 0.00 91 1020.7
20260830031304 23 292 0.0 0.0 0.00 0.00 0.00 91 1020.8
20260830030804 23 292 0.0 0.0 0.00 0.00 0.00 92 1020.7
20260830030304 23 292 0.0 0.0 0.00 0.00 0.00 92 1020.7
20260830023804 23 292 0.0 0.0 0.00 0.00 0.00 93 1020.4
20260830023304 23 292 0.0 0.0 0.00 0.00 0.00 93 1020.3